Index of /shared/routes/5ac117d08576a634e58843cdbb6da45c

[ICO]NameLast modifiedSizeDescription

[PARENTDIR]Parent Directory  -  
[   ]130121-2252-Untitled.kmz2013-01-22 06:09 9.1K 
[   ]130121-2252-Untitled.kmz.php2013-01-22 06:09 710  
[IMG]130121-2252-Untitled.kmz.png2013-01-22 06:09 0  
[   ]130203-0933-Untitled.kmz2013-02-03 17:19 20K 
[   ]130203-0933-Untitled.kmz.php2013-02-03 17:19 728  
[IMG]130203-0933-Untitled.kmz.png2013-02-03 17:19 0  
[   ]130210-0828-Untitled.kmz2013-02-10 16:37 35K 
[   ]130210-0828-Untitled.kmz.php2013-02-10 16:37 729  
[IMG]130210-0828-Untitled.kmz.png2013-02-10 16:37 0  
[   ]130221-0823-Untitled.kmz2013-02-21 14:57 12K 
[   ]130221-0823-Untitled.kmz.php2013-02-21 14:57 738  
[IMG]130221-0823-Untitled.kmz.png2013-02-21 14:57 0  
[   ]130224-0846-Untitled.kmz2013-02-24 16:44 40K 
[   ]130224-0846-Untitled.kmz.php2013-02-24 16:44 741  
[IMG]130224-0846-Untitled.kmz.png2013-02-24 16:44 0  
[   ]130526-1006-Untitled.kmz2013-05-26 21:43 37K 
[   ]130526-1006-Untitled.kmz.php2013-05-26 21:43 741  
[IMG]130526-1006-Untitled.kmz.png2013-05-26 21:43 0  
[   ]130723-2110-Untitled.kmz2013-07-24 05:24 50K 
[   ]130723-2110-Untitled.kmz.php2013-07-24 05:24 728  
[IMG]130723-2110-Untitled.kmz.png2013-07-24 05:24 0  

Apache/2.4.29 (Ubuntu) Server at kineticgps.com Port 80